OBJECT A, 63428

Orbit data source: Space-Track

You're viewing an Uncataloged Satellite

Recently launched and/or uncataloged satellites may have evolving metadata. Metadata may include but not limited to: Owner, Maufacturer, Bus, Motor, and Mission.

OBJECT A, 63428 is a satellite owned by Zhongguo Xingwang (CN) in LEO that was launched on Tue, 01 Apr 2025 UTC via a CHANG ZHENG 2D launch vehicle from the Jiuquan Satellite Launch Center, China (JSC). Unknown objects in Earth's orbit typically refer to objects detected orbiting the Earth but have not yet been identified or cataloged. These objects could be anything from previously untracked satellites, spent rocket stages, debris from satellite collisions, or even natural meteoroids temporarily captured by Earth's gravity.

Loading next visibility...
Identifier
63428, 2025-067A
Orbit
LEO
Last TLE update
1 day ago
Origin
Manufacturer
Yinhe
Mission
Operational spacecraft
Bus & Motor
Unknown
Mass
~300 kg wet, ~300 kg dry
Launch date (UTC)
2025-04-01 (1 month ago)
Launch vehicle
CHANG ZHENG 2D
Launch site
Jiuquan Satellite Launch Center, China (JSC)
Object type
Unknown
Shape & HBR
Unknown
Radar Cross Section
Large (>1 m²)

Expand to show TLE details & history

TLE from 1 day ago
0 OBJECT A
1 63428U 25067A   25119.18231352  .00082526  00000-0  18519-2 0  9995
2 63428  54.9952  83.0088 0008340  17.5247 342.6069 15.42707415  4322
Epoch: 2025-04-29T04:22Z
Definitive object data (Epoch: 2025-04-29T04:22:31.888Z)
Latitude
-0.00001°
Longitude
159.99027°
Altitude
433.799 km
Speed
7.656 km/s
True Right ascension
05h 32m 02s
True Declination
0° 00' 00"
Sunlit
Object was in daylight at TLE epoch
Visualization TLE readout
Latitude
0.46109°
Longitude
-26.05378°
Altitude
443.832 km
Speed
7.644 km/s
Apparent Right ascension
14h 52m 52s
Apparent Declination
-57° 24' 12"
Sunlit
Object is in full shadow
Visualization observer readout
Local Sidereal Time
18:15:35
Azimuth
205.72° SW
Elevation
-16.187°
Doppler factor
1
Orbital elements
Apogee altitude
443.77 km
Perigee altitude
432.401 km
Semi-major axis
6,816.223 km
Eccentricity
0.000834
Inclination
54.9952°
RAAN
83.0088°
Arg. of periapsis
17.5247°
True anomaly
342.5783°
Mean anomaly
342.6069°
Eccentric anomaly
342.5926°
Mean motion
3.8568 °/min
BSTAR
0.0018519
Orbital period
93.34 mins
Loading maneuver chart data...
Loading SW <> Apogee altitude chart data...
Loading historical data...
Loading historical data...
Loading historical data...
Loading historical data...
Loading historical data...
Loading historical data...
Loading historical data...
Other satellites on launch #67 in the year 2025 (2025-04-01 UTC)

OBJECT A Visibility forecast

Observer location: undefined°, undefined°

Span
Click to sort rows by Start time (UTC) header in descending order
Start Az.
Max El. time (UTC)
Max El. Az.
Max El.
End time (UTC)
End Az.
5 mins2025-05-01 00:06:32.325Z248.176° W2025-05-01 00:08:32.325Z299.461° NW37.292°2025-05-01 00:11:32.325Z35.242° NE
5 mins2025-05-01 06:38:32.325Z323.404° NNW2025-05-01 06:40:32.325Z40.589° NE42.389°2025-05-01 06:43:32.325Z123.632° SE
|